Dewpoint
49 49 46 46 42 39 40 44 43 46 47 48 51 52 55 56 57 59 58 57 59 61 63 64 65 66 66 67 68 70 70 71
35 49 48 46 45 42 45 34 32 39 44 44 50 52 54 55 58 58 59 59 59 61 62 64 65 67 67 68 68 69 70 70
28 38 37 42 41 42 43 43 32 33 33 47 50 52 55 56 58 58 60 60 61 62 63 64 66 66 68 69 69 69 70 71
26 28 30 40 39 38 34 35 39 39 32 53 52 51 56 57 58 59 61 61 61 63 64 64 65 66 67 69 69 70 70 72
25 30 35 35 41 36 29 34 36 30 28 50 53 52 55 57 59 59 60 63 63 64 65 65 65 66 68 69 70 70 71 71
22 30 36 40 41 44 36 27 29 29 32 41 54 56 55 58 58 59 60 62 65 64 64 66 68 68 68 70 70 71 71 71
31 37 39 39 40 44 39 43 27 31 44 53 56 59 59 58 59 60 61 61 64 65 66 66 67 69 70 70 70 71 71 71
36 37 35 38 38 43 47 48 48 47 48 56 59 61 59 58 59 60 62 62 64 65 66 66 66 68 68 70 70 71 71 71
31 34 35 36 38 38 44 48 49 45 51 55 57 59 60 59 59 61 61 62 64 65 65 66 66 67 67 68 69 70 70 71
35 36 31 36 44 42 41 44 49 53 53 57 58 59 60 62 61 62 62 63 64 66 66 67 68 68 67 68 68 68 68 68
37 37 35 40 42 42 39 37 47 53 55 57 59 58 59 60 61 61 61 61 61 63 63 65 66 69 68 68 68 68 67 68
37 33 29 38 42 44 44 39 46 55 56 57 57 52 56 58 59 59 60 60 60 60 61 62 62 64 67 67 68 68 67 67
39 37 35 40 43 46 39 40 51 55 56 59 57 58 59 59 58 58 59 58 58 59 58 60 61 63 63 64 63 65 65 65
38 38 32 43 43 43 45 51 54 58 58 58 58 59 58 58 58 57 57 57 57 58 57 58 59 59 58 59 61 62 63 63
42 39 44 46 46 48 51 53 55 58 59 58 58 57 57 57 58 58 57 57 56 55 55 55 57 57 55 56 58 59 59 59
42 44 46 47 49 50 54 53 57 58 58 57 56 56 57 57 57 57 57 56 56 55 52 52 52 52 53 54 55 55 54 55
42 45 47 47 50 48 53 56 55 56 57 57 56 56 56 57 57 57 56 53 53 54 53 53 52 52 51 52 52 50 50 48
34 48 49 48 47 52 55 56 55 55 56 58 57 56 55 55 55 54 53 54 53 52 52 51 50 50 52 52 51 49 47 46
43 47 46 47 49 49 53 56 56 55 57 59 58 56 56 55 56 55 56 55 54 53 51 50 50 51 54 55 53 53 51 52
Lifted_Index
-3 -4 -4 -3 -2 -2 -2 -2 -2 -2 -2 -2 -2 -1 -0 0 -0 -1 -0 0 0 0 -0 -1 -1 -1 -1 -2 -2 -3 -3 -3
-2 -3 -4 -3 -3 -2 -2 -2 -2 -2 -2 -2 -2 -1 -1 -0 -1 -1 -1 -0 0 0 -0 -1 -1 -1 -1 -1 -2 -2 -3 -3
-1 -2 -3 -3 -3 -3 -2 -2 -2 -1 -2 -2 -2 -2 -2 -1 -1 -1 -1 -0 -0 -0 -0 -1 -1 -1 -1 -2 -2 -2 -3 -3
-0 -1 -1 -2 -3 -2 -2 -2 -2 -1 -1 -2 -2 -2 -2 -2 -1 -1 -0 -1 -1 -0 -0 -1 -1 -1 -2 -2 -2 -2 -2 -3
-0 -1 -1 -2 -2 -2 -2 -1 -1 -1 -1 -2 -3 -3 -3 -3 -2 -1 -1 -1 -1 -1 -1 -1 -1 -2 -2 -2 -2 -2 -2 -2
-1 -1 -2 -2 -2 -2 -2 -1 -1 -0 -1 -2 -3 -4 -4 -4 -3 -2 -2 -2 -2 -1 -1 -1 -2 -2 -2 -2 -2 -2 -2 -2
-1 -2 -2 -2 -2 -2 -2 -2 -1 -1 -2 -3 -4 -5 -5 -4 -3 -3 -3 -3 -2 -2 -1 -1 -1 -2 -2 -2 -2 -2 -3 -3
-2 -2 -2 -1 -1 -2 -3 -3 -3 -3 -3 -4 -5 -5 -5 -4 -4 -4 -4 -3 -3 -2 -2 -1 -1 -1 -2 -2 -2 -2 -3 -3
-2 -2 -1 -1 -1 -1 -2 -3 -4 -4 -4 -4 -5 -5 -5 -5 -4 -4 -3 -3 -3 -3 -2 -1 -1 -1 -1 -1 -2 -2 -2 -2
-2 -1 -1 -1 -1 -1 -2 -2 -3 -4 -4 -4 -5 -5 -5 -4 -4 -4 -3 -3 -3 -2 -2 -1 -1 -1 -1 -1 -1 -1 -1 -1
-1 -1 -1 -1 -1 -1 -1 -2 -3 -4 -4 -4 -4 -4 -4 -4 -4 -3 -3 -3 -2 -2 -2 -2 -2 -2 -2 -1 -1 -1 -1 -1
-1 -0 -0 -1 -1 -1 -1 -1 -3 -4 -5 -5 -4 -4 -3 -2 -3 -3 -3 -3 -3 -3 -3 -2 -2 -2 -2 -2 -2 -1 -1 -1
-0 -0 0 -0 -1 -1 -1 -2 -3 -4 -5 -5 -4 -3 -2 -2 -2 -2 -2 -2 -2 -3 -3 -2 -2 -2 -2 -2 -2 -1 -1 -1
-0 -0 0 0 -0 -1 -1 -2 -3 -4 -4 -4 -3 -2 -2 -1 -2 -2 -2 -2 -2 -2 -2 -2 -2 -2 -2 -2 -2 -1 -1 -1
-0 -0 0 0 -0 -1 -2 -2 -3 -4 -4 -3 -2 -2 -1 -1 -2 -2 -1 -1 -2 -2 -1 -1 -1 -1 -2 -2 -1 -1 -1 -1
-0 -0 -1 -1 -1 -1 -2 -3 -3 -3 -3 -3 -2 -1 -1 -1 -1 -1 -1 -0 -1 -1 -1 -0 -0 -1 -1 -1 -0 -1 -1 -1
-0 -1 -1 -1 -2 -2 -3 -3 -3 -3 -3 -2 -2 -1 -1 -1 -0 0 1 1 2 2 2 2 2 2 3 3 3 2 2 2
-0 -1 -1 -2 -2 -3 -4 -4 -3 -3 -3 -3 -2 -1 -0 0 1 2 2 3 4 4 5 6 6 6 7 7 7 7 6 6
-0 -0 -1 -1 -1 -2 -4 -4 -4 -3 -3 -3 -2 -1 -0 0 2 2 3 3 4 5 7 8 8 9 9 9 9 8 8 8